Time,TemperatureF,DewpointF,PressureIn,WindDirection,WindDirectionDegrees,WindSpeedMPH,WindSpeedGustMPH,Humidity,HourlyPrecipIn,Conditions,Clouds,dailyrainin,SolarRadiationWatts/m^2,SoftwareType,DateUTC
2013-02-18 00:02:00,37.0,27.0,-100.00,NW,318,2.0,-999.0,66,0.00,,,-99.99,0.000000,,2013-02-18 05:02:00,
2013-02-18 00:11:00,37.0,27.0,-100.00,NW,315,3.0,-999.0,66,0.00,,,-99.99,0.000000,,2013-02-18 05:11:00,
2013-02-18 00:21:00,37.0,27.0,-100.00,NW,315,3.0,-999.0,66,0.00,,,-99.99,0.000000,,2013-02-18 05:21:00,
2013-02-18 00:32:00,37.0,28.0,-100.00,NW,325,3.0,-999.0,69,0.00,,,-99.99,0.000000,,2013-02-18 05:32:00,
2013-02-18 00:42:00,36.0,27.0,-100.00,NNW,340,3.0,-999.0,69,0.00,,,-99.99,0.000000,,2013-02-18 05:42:00,
2013-02-18 00:52:00,36.0,27.0,-100.00,NNW,340,3.0,-999.0,69,0.00,,,-99.99,0.000000,,2013-02-18 05:52:00,
2013-02-18 01:02:00,36.0,27.0,-100.00,North,354,2.0,-999.0,70,0.00,,,-99.99,0.000000,,2013-02-18 06:02:00,
2013-02-18 01:11:00,35.0,28.0,-100.00,NNW,347,3.0,-999.0,73,0.00,,,-99.99,0.000000,,2013-02-18 06:11:00,
2013-02-18 01:21:00,35.0,28.0,-100.00,NNW,347,3.0,-999.0,73,0.00,,,-99.99,0.000000,,2013-02-18 06:21:00,
2013-02-18 01:32:00,36.0,28.0,-100.00,North,357,3.0,-999.0,73,0.00,,,-99.99,0.000000,,2013-02-18 06:32:00,
2013-02-18 01:42:00,35.0,27.0,-100.00,North,355,3.0,-999.0,73,0.00,,,-99.99,0.000000,,2013-02-18 06:42:00,
2013-02-18 01:52:00,35.0,27.0,-100.00,North,355,3.0,-999.0,73,0.00,,,-99.99,0.000000,,2013-02-18 06:52:00,
2013-02-18 02:01:00,35.0,27.0,-100.00,North,1,3.0,-999.0,72,0.00,,,-99.99,0.000000,,2013-02-18 07:01:00,
2013-02-18 02:11:00,35.0,27.0,-100.00,North,4,3.0,-999.0,72,0.00,,,-99.99,0.000000,,2013-02-18 07:11:00,
2013-02-18 02:22:00,35.0,27.0,-100.00,North,4,3.0,-999.0,72,0.00,,,-99.99,0.000000,,2013-02-18 07:22:00,
2013-02-18 02:32:00,34.0,27.0,-100.00,NNW,347,2.0,-999.0,74,0.00,,,-99.99,0.000000,,2013-02-18 07:32:00,
2013-02-18 02:42:00,34.0,27.0,-100.00,North,358,3.0,-999.0,75,0.00,,,-99.99,0.000000,,2013-02-18 07:42:00,
2013-02-18 02:52:00,34.0,27.0,-100.00,North,358,3.0,-999.0,75,0.00,,,-99.99,0.000000,,2013-02-18 07:52:00,
2013-02-18 03:01:00,33.0,27.0,-100.00,North,4,3.0,-999.0,76,0.00,,,-99.99,0.000000,,2013-02-18 08:01:00,
2013-02-18 03:11:00,33.0,27.0,-100.00,NNE,16,3.0,-999.0,76,0.00,,,-99.99,0.000000,,2013-02-18 08:11:00,
2013-02-18 03:21:00,33.0,27.0,-100.00,NNE,16,3.0,-999.0,76,0.00,,,-99.99,0.000000,,2013-02-18 08:21:00,
2013-02-18 03:32:00,34.0,28.0,-100.00,NNE,14,4.0,-999.0,78,0.00,,,-99.99,0.000000,,2013-02-18 08:32:00,
2013-02-18 03:42:00,34.0,28.0,-100.00,NNE,16,4.0,-999.0,79,0.00,,,-99.99,0.000000,,2013-02-18 08:42:00,
2013-02-18 03:52:00,34.0,28.0,-100.00,NNE,16,4.0,-999.0,79,0.00,,,-99.99,0.000000,,2013-02-18 08:52:00,
2013-02-18 04:03:00,34.0,29.0,-100.00,NNE,21,3.0,-999.0,81,0.00,,,-99.99,0.000000,,2013-02-18 09:03:00,
2013-02-18 04:11:00,34.0,29.0,-100.00,NNE,33,3.0,-999.0,82,0.00,,,-99.99,0.000000,,2013-02-18 09:11:00,
2013-02-18 04:22:00,34.0,29.0,-100.00,NNE,33,3.0,-999.0,82,0.00,,,-99.99,0.000000,,2013-02-18 09:22:00,
2013-02-18 04:32:00,34.0,29.0,-100.00,NE,36,4.0,-999.0,82,0.00,,,-99.99,0.000000,,2013-02-18 09:32:00,
2013-02-18 04:42:00,34.0,29.0,-100.00,NE,34,4.0,-999.0,80,0.00,,,-99.99,0.000000,,2013-02-18 09:42:00,
2013-02-18 04:52:00,34.0,29.0,-100.00,NE,34,4.0,-999.0,80,0.00,,,-99.99,0.000000,,2013-02-18 09:52:00,
2013-02-18 05:01:00,35.0,29.0,-100.00,NNE,32,3.0,-999.0,77,0.00,,,-99.99,0.000000,,2013-02-18 10:01:00,
2013-02-18 05:11:00,34.0,28.0,-100.00,NE,40,3.0,-999.0,79,0.00,,,-99.99,0.000000,,2013-02-18 10:11:00,
2013-02-18 05:22:00,34.0,28.0,-100.00,NE,40,3.0,-999.0,79,0.00,,,-99.99,0.000000,,2013-02-18 10:22:00,
2013-02-18 05:32:00,35.0,29.0,-100.00,NE,42,4.0,-999.0,81,0.00,,,-99.99,0.000000,,2013-02-18 10:32:00,
2013-02-18 05:42:00,36.0,30.0,-100.00,NE,39,4.0,-999.0,77,0.00,,,-99.99,0.000000,,2013-02-18 10:42:00,
2013-02-18 05:53:00,36.0,30.0,-100.00,NE,39,4.0,-999.0,77,0.00,,,-99.99,0.000000,,2013-02-18 10:53:00,
2013-02-18 06:01:00,36.0,30.0,-100.00,NE,35,3.0,-999.0,79,0.00,,,-99.99,0.000000,,2013-02-18 11:01:00,
2013-02-18 06:11:00,35.0,30.0,-100.00,NE,34,3.0,-999.0,81,0.00,,,-99.99,0.000000,,2013-02-18 11:11:00,
2013-02-18 06:22:00,35.0,30.0,-100.00,NE,34,3.0,-999.0,81,0.00,,,-99.99,0.000000,,2013-02-18 11:22:00,
2013-02-18 06:32:00,34.0,30.0,-100.00,NNE,29,3.0,-999.0,84,0.00,,,-99.99,0.000000,,2013-02-18 11:32:00,
2013-02-18 06:42:00,34.0,30.0,-100.00,NNE,33,4.0,-999.0,84,0.00,,,-99.99,0.000000,,2013-02-18 11:42:00,
2013-02-18 06:53:00,34.0,30.0,-100.00,NNE,33,4.0,-999.0,84,0.00,,,-99.99,0.000000,,2013-02-18 11:53:00,
2013-02-18 07:02:00,35.0,30.0,-100.00,NNE,31,4.0,-999.0,80,0.00,,,-99.99,0.000000,,2013-02-18 12:02:00,
2013-02-18 07:11:00,35.0,29.0,-100.00,NNE,32,4.0,-999.0,79,0.00,,,-99.99,1.500000,,2013-02-18 12:11:00,
2013-02-18 07:22:00,35.0,29.0,-100.00,NNE,32,4.0,-999.0,79,0.00,,,-99.99,1.500000,,2013-02-18 12:22:00,
2013-02-18 07:32:00,34.0,29.0,-100.00,NE,36,3.0,-999.0,82,0.00,,,-99.99,7.400000,,2013-02-18 12:32:00,
2013-02-18 07:42:00,34.0,29.0,-100.00,NE,36,3.0,-999.0,82,0.00,,,-99.99,7.400000,,2013-02-18 12:42:00,
2013-02-18 07:53:00,34.0,30.0,-100.00,NNE,29,3.0,-999.0,84,0.00,,,-99.99,16.700001,,2013-02-18 12:53:00,
2013-02-18 08:03:00,35.0,31.0,-100.00,NNE,33,3.0,-999.0,84,0.00,,,-99.99,23.299999,,2013-02-18 13:03:00,
2013-02-18 08:12:00,36.0,31.0,-100.00,NE,39,3.0,-999.0,80,0.00,,,-99.99,36.599998,,2013-02-18 13:12:00,
2013-02-18 08:23:00,36.0,31.0,-100.00,NE,39,3.0,-999.0,80,0.00,,,-99.99,36.599998,,2013-02-18 13:23:00,
2013-02-18 08:32:00,39.0,31.0,-100.00,NE,34,3.0,-999.0,71,0.00,,,-99.99,169.399994,,2013-02-18 13:32:00,
2013-02-18 08:42:00,42.0,31.0,-100.00,NE,42,3.0,-999.0,64,0.00,,,-99.99,249.500000,,2013-02-18 13:42:00,
2013-02-18 08:53:00,42.0,31.0,-100.00,NE,42,3.0,-999.0,64,0.00,,,-99.99,249.500000,,2013-02-18 13:53:00,
2013-02-18 09:02:00,44.0,30.0,-100.00,NE,39,4.0,-999.0,56,0.00,,,-99.99,308.399994,,2013-02-18 14:02:00,
2013-02-18 09:11:00,47.0,29.0,-100.00,NE,45,4.0,-999.0,50,0.00,,,-99.99,362.399994,,2013-02-18 14:11:00,
2013-02-18 09:22:00,47.0,29.0,-100.00,NE,45,4.0,-999.0,50,0.00,,,-99.99,362.399994,,2013-02-18 14:22:00,
2013-02-18 09:33:00,49.0,27.0,-100.00,NE,55,5.0,-999.0,42,0.00,,,-99.99,414.799988,,2013-02-18 14:33:00,
2013-02-18 09:42:00,51.0,26.0,-100.00,ENE,64,7.0,-999.0,37,0.00,,,-99.99,465.500000,,2013-02-18 14:42:00,
2013-02-18 09:53:00,51.0,26.0,-100.00,ENE,64,7.0,-999.0,37,0.00,,,-99.99,465.500000,,2013-02-18 14:53:00,
2013-02-18 10:02:00,52.0,28.0,-100.00,ENE,61,7.0,-999.0,38,0.00,,,-99.99,513.200012,,2013-02-18 15:02:00,
2013-02-18 10:12:00,53.0,29.0,-100.00,ENE,64,8.0,-999.0,39,0.00,,,-99.99,557.700012,,2013-02-18 15:12:00,
2013-02-18 10:22:00,53.0,29.0,-100.00,ENE,64,8.0,-999.0,39,0.00,,,-99.99,557.700012,,2013-02-18 15:22:00,
2013-02-18 10:32:00,61.0,29.0,-100.00,ENE,75,10.0,-999.0,29,0.00,,,-99.99,616.299988,,2013-02-18 15:32:00,
2013-02-18 10:42:00,57.0,30.0,-100.00,ENE,72,9.0,-999.0,35,0.08,,,-99.99,638.599976,,2013-02-18 15:42:00,
2013-02-18 10:53:00,57.0,30.0,-100.00,ENE,72,9.0,-999.0,35,0.08,,,-99.99,638.599976,,2013-02-18 15:53:00,
2013-02-18 11:03:00,57.0,31.0,-100.00,East,80,10.0,-999.0,37,0.00,,,-99.99,674.099976,,2013-02-18 16:03:00,
2013-02-18 11:12:00,58.0,32.0,-100.00,ENE,75,8.0,-999.0,37,0.00,,,-99.99,705.000000,,2013-02-18 16:12:00,
2013-02-18 11:22:00,58.0,32.0,-100.00,ENE,75,8.0,-999.0,37,0.00,,,-99.99,705.000000,,2013-02-18 16:22:00,
2013-02-18 11:32:00,60.0,34.0,-100.00,East,79,9.0,-999.0,38,0.00,,,-99.99,713.000000,,2013-02-18 16:32:00,
2013-02-18 11:42:00,61.0,36.0,-100.00,East,98,7.0,-999.0,39,0.00,,,-99.99,756.000000,,2013-02-18 16:42:00,
2013-02-18 11:53:00,61.0,36.0,-100.00,East,98,7.0,-999.0,39,0.00,,,-99.99,756.000000,,2013-02-18 16:53:00,
2013-02-18 12:04:00,61.0,37.0,-100.00,East,96,8.0,-999.0,39,0.00,,,-99.99,778.000000,,2013-02-18 17:04:00,
2013-02-18 12:12:00,62.0,37.0,-100.00,East,93,8.0,-999.0,39,0.00,,,-99.99,792.000000,,2013-02-18 17:12:00,
2013-02-18 12:22:00,62.0,37.0,-100.00,East,93,8.0,-999.0,39,0.00,,,-99.99,792.000000,,2013-02-18 17:22:00,
2013-02-18 12:32:00,63.0,37.0,-100.00,ESE,103,8.0,-999.0,39,0.00,,,-99.99,805.000000,,2013-02-18 17:32:00,
2013-02-18 12:42:00,64.0,38.0,-100.00,ESE,109,7.0,-999.0,38,0.00,,,-99.99,812.000000,,2013-02-18 17:42:00,
2013-02-18 12:53:00,64.0,38.0,-100.00,ESE,109,7.0,-999.0,38,0.00,,,-99.99,812.000000,,2013-02-18 17:53:00,
2013-02-18 13:02:00,64.0,38.0,-100.00,ESE,104,7.0,-999.0,38,0.00,,,-99.99,815.000000,,2013-02-18 18:02:00,
2013-02-18 13:12:00,65.0,39.0,-100.00,East,100,8.0,-999.0,38,0.00,,,-99.99,813.000000,,2013-02-18 18:12:00,
2013-02-18 13:23:00,65.0,39.0,-100.00,East,100,8.0,-999.0,38,0.00,,,-99.99,813.000000,,2013-02-18 18:23:00,
2013-02-18 13:32:00,66.0,40.0,-100.00,ESE,111,6.0,-999.0,38,0.00,,,-99.99,806.000000,,2013-02-18 18:32:00,
2013-02-18 13:42:00,66.0,40.0,-100.00,ESE,109,8.0,-999.0,38,0.00,,,-99.99,795.000000,,2013-02-18 18:42:00,
2013-02-18 13:53:00,66.0,40.0,-100.00,ESE,109,8.0,-999.0,38,0.00,,,-99.99,795.000000,,2013-02-18 18:53:00,
2013-02-18 14:03:00,67.0,41.0,-100.00,SE,126,7.0,-999.0,38,0.00,,,-99.99,774.000000,,2013-02-18 19:03:00,
2013-02-18 14:13:00,67.0,41.0,-100.00,ESE,117,7.0,-999.0,39,0.00,,,-99.99,663.599976,,2013-02-18 19:13:00,
2013-02-18 14:22:00,67.0,41.0,-100.00,ESE,117,7.0,-999.0,39,0.00,,,-99.99,663.599976,,2013-02-18 19:22:00,
2013-02-18 14:33:00,68.0,41.0,-100.00,ESE,110,7.0,-999.0,37,0.00,,,-99.99,701.000000,,2013-02-18 19:33:00,
2013-02-18 14:43:00,69.0,41.0,-100.00,ESE,112,7.0,-999.0,36,0.00,,,-99.99,766.000000,,2013-02-18 19:43:00,
2013-02-18 14:53:00,69.0,41.0,-100.00,ESE,112,7.0,-999.0,36,0.00,,,-99.99,766.000000,,2013-02-18 19:53:00,
2013-02-18 15:02:00,69.0,41.0,-100.00,ESE,118,6.0,-999.0,36,0.00,,,-99.99,653.700012,,2013-02-18 20:02:00,
2013-02-18 15:12:00,67.0,41.0,-100.00,SE,134,6.0,-999.0,39,0.00,,,-99.99,464.700012,,2013-02-18 20:12:00,
2013-02-18 15:23:00,67.0,41.0,-100.00,SE,134,6.0,-999.0,39,0.00,,,-99.99,464.700012,,2013-02-18 20:23:00,
2013-02-18 15:33:00,68.0,42.0,-100.00,ESE,118,5.0,-999.0,38,0.00,,,-99.99,450.600006,,2013-02-18 20:33:00,
2013-02-18 15:42:00,70.0,42.0,-100.00,ESE,117,6.0,-999.0,36,0.00,,,-99.99,718.000000,,2013-02-18 20:42:00,
2013-02-18 15:53:00,70.0,42.0,-100.00,ESE,117,6.0,-999.0,36,0.00,,,-99.99,718.000000,,2013-02-18 20:53:00,
2013-02-18 16:03:00,69.0,42.0,-100.00,ESE,111,6.0,-999.0,37,0.00,,,-99.99,352.100006,,2013-02-18 21:03:00,
2013-02-18 16:12:00,68.0,43.0,-100.00,ESE,106,7.0,-999.0,40,0.00,,,-99.99,406.600006,,2013-02-18 21:12:00,
2013-02-18 16:22:00,68.0,43.0,-100.00,ESE,106,7.0,-999.0,40,0.00,,,-99.99,406.600006,,2013-02-18 21:22:00,
2013-02-18 16:32:00,68.0,43.0,-100.00,ESE,119,6.0,-999.0,39,0.00,,,-99.99,391.000000,,2013-02-18 21:32:00,
2013-02-18 16:43:00,68.0,43.0,-100.00,ESE,119,7.0,-999.0,39,0.00,,,-99.99,338.000000,,2013-02-18 21:43:00,
2013-02-18 16:53:00,68.0,43.0,-100.00,ESE,119,7.0,-999.0,39,0.00,,,-99.99,338.000000,,2013-02-18 21:53:00,
2013-02-18 17:03:00,67.0,44.0,-100.00,ESE,117,6.0,-999.0,42,0.00,,,-99.99,236.500000,,2013-02-18 22:03:00,
2013-02-18 17:12:00,68.0,43.0,-100.00,ESE,109,7.0,-999.0,41,0.00,,,-99.99,321.299988,,2013-02-18 22:12:00,
2013-02-18 17:22:00,68.0,43.0,-100.00,ESE,109,7.0,-999.0,41,0.00,,,-99.99,321.299988,,2013-02-18 22:22:00,
2013-02-18 17:33:00,67.0,44.0,-100.00,SE,124,6.0,-999.0,43,0.00,,,-99.99,104.500000,,2013-02-18 22:33:00,
2013-02-18 17:43:00,65.0,44.0,-100.00,ESE,118,6.0,-999.0,45,0.00,,,-99.99,62.500000,,2013-02-18 22:43:00,
2013-02-18 17:53:00,65.0,44.0,-100.00,ESE,118,6.0,-999.0,45,0.00,,,-99.99,62.500000,,2013-02-18 22:53:00,
2013-02-18 18:02:00,65.0,44.0,-100.00,SE,127,5.0,-999.0,47,0.00,,,-99.99,40.900002,,2013-02-18 23:02:00,
2013-02-18 18:12:00,64.0,45.0,-100.00,ESE,109,6.0,-999.0,48,0.00,,,-99.99,30.600000,,2013-02-18 23:12:00,
2013-02-18 18:23:00,64.0,45.0,-100.00,ESE,109,6.0,-999.0,48,0.00,,,-99.99,30.600000,,2013-02-18 23:23:00,
2013-02-18 18:33:00,63.0,45.0,-100.00,ESE,106,5.0,-999.0,51,0.00,,,-99.99,11.400000,,2013-02-18 23:33:00,
2013-02-18 18:43:00,62.0,45.0,-100.00,ESE,103,4.0,-999.0,54,0.00,,,-99.99,2.700000,,2013-02-18 23:43:00,
2013-02-18 18:53:00,62.0,45.0,-100.00,ESE,103,4.0,-999.0,54,0.00,,,-99.99,2.700000,,2013-02-18 23:53:00,
2013-02-18 19:03:00,62.0,45.0,-100.00,East,95,5.0,-999.0,54,0.00,,,-99.99,0.200000,,2013-02-19 00:03:00,
2013-02-18 19:12:00,61.0,45.0,-100.00,East,91,5.0,-999.0,55,0.00,,,-99.99,0.000000,,2013-02-19 00:12:00,
2013-02-18 19:22:00,61.0,45.0,-100.00,East,91,5.0,-999.0,55,0.00,,,-99.99,0.000000,,2013-02-19 00:22:00,
2013-02-18 19:34:00,61.0,46.0,-100.00,East,101,5.0,-999.0,57,0.00,,,-99.99,0.000000,,2013-02-19 00:34:00,
2013-02-18 19:43:00,61.0,46.0,-100.00,East,101,5.0,-999.0,57,0.00,,,-99.99,0.000000,,2013-02-19 00:43:00,
2013-02-18 19:55:00,60.0,46.0,-100.00,ESE,103,4.0,-999.0,60,0.00,,,-99.99,0.000000,,2013-02-19 00:55:00,
2013-02-18 20:03:00,60.0,46.0,-100.00,East,99,5.0,-999.0,60,0.00,,,-99.99,0.000000,,2013-02-19 01:03:00,
2013-02-18 20:14:00,59.0,47.0,-100.00,ESE,108,4.0,-999.0,63,0.00,,,-99.99,0.000000,,2013-02-19 01:14:00,
2013-02-18 20:24:00,59.0,47.0,-100.00,ESE,108,4.0,-999.0,63,0.00,,,-99.99,0.000000,,2013-02-19 01:24:00,
2013-02-18 20:34:00,58.0,47.0,-100.00,East,100,4.0,-999.0,65,0.00,,,-99.99,0.000000,,2013-02-19 01:34:00,
2013-02-18 20:44:00,58.0,47.0,-100.00,East,101,4.0,-999.0,66,0.00,,,-99.99,0.000000,,2013-02-19 01:44:00,
2013-02-18 20:56:00,58.0,47.0,-100.00,East,101,4.0,-999.0,66,0.00,,,-99.99,0.000000,,2013-02-19 01:56:00,
2013-02-18 21:03:00,57.0,47.0,-100.00,ESE,104,3.0,-999.0,68,0.00,,,-99.99,0.000000,,2013-02-19 02:03:00,
2013-02-18 21:14:00,57.0,47.0,-100.00,ESE,106,3.0,-999.0,70,0.00,,,-99.99,0.000000,,2013-02-19 02:14:00,
2013-02-18 21:23:00,57.0,47.0,-100.00,ESE,106,3.0,-999.0,70,0.00,,,-99.99,0.000000,,2013-02-19 02:23:00,
2013-02-18 21:34:00,56.0,47.0,-100.00,East,100,3.0,-999.0,71,0.00,,,-99.99,0.000000,,2013-02-19 02:34:00,
2013-02-18 21:43:00,56.0,47.0,-100.00,East,95,4.0,-999.0,72,0.00,,,-99.99,0.000000,,2013-02-19 02:43:00,
2013-02-18 21:55:00,56.0,47.0,-100.00,East,95,4.0,-999.0,72,0.00,,,-99.99,0.000000,,2013-02-19 02:55:00,
2013-02-18 22:06:00,55.0,47.0,-100.00,East,91,4.0,-999.0,72,0.00,,,-99.99,0.000000,,2013-02-19 03:06:00,
2013-02-18 22:15:00,55.0,46.0,-100.00,East,88,5.0,-999.0,72,0.00,,,-99.99,0.000000,,2013-02-19 03:15:00,
2013-02-18 22:24:00,55.0,46.0,-100.00,East,88,5.0,-999.0,72,0.00,,,-99.99,0.000000,,2013-02-19 03:24:00,
2013-02-18 22:34:00,54.0,46.0,-100.00,East,89,4.0,-999.0,72,0.00,,,-99.99,0.000000,,2013-02-19 03:34:00,
2013-02-18 22:44:00,54.0,46.0,-100.00,ESE,104,2.0,-999.0,73,0.00,,,-99.99,0.000000,,2013-02-19 03:44:00,
2013-02-18 22:55:00,54.0,46.0,-100.00,ESE,104,2.0,-999.0,73,0.00,,,-99.99,0.000000,,2013-02-19 03:55:00,
2013-02-18 23:02:00,54.0,47.0,-100.00,ESE,122,2.0,-999.0,76,0.00,,,-99.99,0.000000,,2013-02-19 04:02:00,
2013-02-18 23:14:00,54.0,48.0,-100.00,SE,128,2.0,-999.0,79,0.00,,,-99.99,0.000000,,2013-02-19 04:14:00,
2013-02-18 23:23:00,54.0,48.0,-100.00,SE,128,2.0,-999.0,79,0.00,,,-99.99,0.000000,,2013-02-19 04:23:00,
2013-02-18 23:33:00,53.0,48.0,-100.00,SE,140,2.0,-999.0,81,0.00,,,-99.99,0.000000,,2013-02-19 04:33:00,
2013-02-18 23:44:00,53.0,48.0,-100.00,SE,141,3.0,-999.0,83,0.00,,,-99.99,0.000000,,2013-02-19 04:44:00,
2013-02-18 23:55:00,53.0,48.0,-100.00,SE,141,3.0,-999.0,83,0.00,,,-99.99,0.000000,,2013-02-19 04:55:00,